Theta_e
308 308 308 308 308 308 308 308 308 307 306 305 305 305 305 305 305 306 307 312 313 312 313 314 312 308 307 310 310 312 312 311 309 308 319 318 315 314 313 313 315 314 314 315 314 312 310
308 308 307 308 307 306 308 308 307 306 306 305 305 304 305 305 305 306 306 311 313 312 312 313 310 308 308 313 310 311 312 310 309 307 318 317 315 314 314 313 312 315 315 314 314 312 311
307 307 306 306 306 304 305 306 307 306 305 304 303 304 303 304 305 305 305 309 312 312 310 311 309 308 312 312 314 313 310 311 311 307 316 315 314 314 314 312 314 314 313 313 312 313 309
304 307 306 306 305 305 305 305 305 305 304 304 302 302 302 302 303 304 305 309 311 311 308 309 308 308 310 309 311 312 314 315 311 312 314 315 314 313 314 314 314 312 312 312 312 313 312
304 303 303 304 304 305 304 305 304 305 305 303 301 300 300 300 301 303 306 310 310 311 307 307 307 311 312 310 314 313 313 314 312 313 313 313 313 313 313 312 311 311 311 311 314 314 312
302 303 304 303 303 303 304 304 304 304 304 303 299 298 298 299 300 301 309 310 309 307 306 308 313 313 308 310 309 319 315 313 313 313 313 313 312 310 310 310 312 312 312 311 313 311 308
303 304 303 303 303 303 303 303 303 304 304 304 301 297 297 297 298 302 311 313 315 314 312 310 309 310 310 310 314 317 314 312 312 311 310 312 311 311 310 310 311 312 312 312 312 308 305
303 304 302 302 302 302 303 303 303 304 302 301 298 296 296 297 297 304 312 316 314 314 314 309 312 311 310 311 314 315 314 312 311 310 310 311 311 311 311 312 312 312 313 313 311 307 304
302 302 302 302 302 302 302 302 301 301 300 298 297 296 296 296 296 298 311 315 314 312 313 314 312 311 311 311 311 312 313 312 310 310 310 310 312 311 313 313 312 312 311 311 314 305 302
300 301 302 301 301 301 301 301 300 298 297 296 298 296 296 296 298 299 300 307 314 312 311 312 312 312 311 311 311 311 313 311 311 311 310 311 312 312 312 313 311 313 312 313 311 311 311
300 300 301 301 300 300 300 298 298 296 296 299 301 300 296 295 308 305 309 302 305 312 311 312 312 312 311 311 311 311 312 311 310 311 310 312 311 312 313 313 311 312 314 313 313 312 311
299 299 300 300 299 298 298 297 295 295 296 300 299 298 298 302 309 310 312 311 311 315 312 315 311 312 311 311 311 310 310 311 312 312 311 312 312 312 312 312 312 312 313 313 312 312 314
299 298 298 299 298 298 297 294 294 294 299 304 304 306 308 305 306 308 312 312 311 311 312 314 313 312 312 312 311 310 310 311 311 312 312 312 312 311 312 312 312 313 313 316 317 316 315
298 298 298 299 300 297 296 293 294 294 299 304 306 306 309 304 311 311 313 314 314 309 315 314 313 313 313 312 312 311 309 309 311 312 311 312 313 311 311 312 312 312 313 315 319 318 315
297 298 298 298 298 297 295 293 293 295 296 305 309 309 305 309 309 313 315 314 310 311 310 313 313 313 314 313 312 311 310 310 308 309 315 312 314 307 308 309 311 313 315 313 314 314 312
297 297 297 296 297 296 293 293 294 295 295 306 310 311 304 311 311 313 313 312 308 306 307 310 314 313 315 314 313 311 310 305 306 303 305 308 312 308 307 308 309 311 310 315 313 317 316
296 296 296 295 295 295 293 292 294 295 296 305 307 311 308 311 313 313 312 307 306 304 306 307 308 312 312 314 313 312 306 299 299 303 302 303 307 304 307 301 304 309 312 311 312 313 314
297 295 295 295 294 294 292 292 293 295 302 307 309 305 312 313 308 308 307 300 300 302 301 305 304 303 304 307 309 301 300 299 296 297 302 299 302 301 301 300 298 298 300 303 313 313 307
296 296 294 294 294 294 292 292 292 295 297 307 303 301 308 307 306 302 298 297 297 299 297 300 302 300 299 302 304 299 296 296 298 298 298 298 298 299 301 300 299 297 296 298 300 301 303
295 293 294 293 293 293 293 292 292 294 296 301 299 297 302 308 303 304 301 299 297 296 296 296 298 298 300 302 300 298 296 296 296 297 299 299 298 297 302 300 298 297 295 295 294 295 295
295 295 293 293 293 293 293 291 292 293 295 299 297 294 296 299 299 301 302 299 297 296 295 295 296 297 300 302 300 297 295 295 294 296 295 298 297 295 294 295 293 292 292 293 291 286 292
294 294 294 292 292 292 292 292 291 292 294 295 295 295 296 295 295 298 298 299 297 294 295 295 295 295 295 295 297 297 295 294 295 294 294 294 295 294 292 293 291 288 287 289 288 285 283
293 292 292 292 292 292 292 292 292 291 292 292 293 294 295 294 293 294 293 295 295 293 294 294 293 293 293 293 293 293 293 293 293 293 293 294 294 293 291 292 291 288 280 285 283 280 282
293 292 291 291 291 292 291 292 291 292 292 292 291 293 295 293 293 293 294 294 293 293 293 293 294 293 293 293 293 293 292 291 291 291 293 293 294 290 288 292 288 280 280 280 280 278 277
292 292 291 291 291 291 291 292 291 291 292 292 291 292 294 292 293 293 293 291 292 292 291 292 292 293 293 294 293 294 294 293 290 290 291 292 292 289 290 286 282 279 279 280 281 278 272
291 291 291 291 291 290 290 291 290 290 291 291 292 292 294 292 291 291 291 292 291 290 290 292 292 292 293 294 295 291 293 294 291 291 290 291 292 291 287 288 290 280 276 276 276 281 274
291 292 291 291 290 290 290 290 290 290 291 290 291 291 294 292 289 290 291 291 292 291 290 291 292 293 293 294 296 290 291 292 291 290 289 290 288 287 288 281 278 273 276 276 282 281 274
291 290 290 290 290 289 290 290 290 290 291 290 291 291 293 289 286 288 289 288 290 291 290 291 291 291 291 293 293 291 290 286 283 281 281 285 286 286 284 282 287 276 274 278 275 274 274
290 290 289 289 289 289 290 289 289 289 291 290 291 290 291 290 286 287 286 286 286 288 289 292 292 291 292 293 289 286 282 280 281 281 279 282 277 281 277 278 272 275 276 276 275 275 273
Wind_Speed
20 20 20 20 20 19 18 18 18 17 15 15 15 14 12 12 11 11 11 8 6 10 12 12 12 14 14 7 8 3 3 9 20 23 27 23 18 18 5 11 12 5 3 10 28 34 34
21 21 20 19 19 19 19 18 19 18 16 15 15 15 13 11 11 10 10 8 6 9 13 14 15 17 13 4 4 10 7 11 22 26 30 27 14 20 8 6 9 12 14 15 27 24 12
22 22 22 21 21 20 20 20 19 19 17 16 15 15 14 11 10 9 8 7 5 8 12 14 16 17 11 13 4 8 9 14 22 26 29 25 10 18 8 3 12 8 5 2 21 14 12
24 24 22 22 23 21 20 21 20 20 18 17 15 14 12 13 9 8 7 5 5 6 11 14 15 16 7 8 10 4 10 15 17 25 19 20 17 11 2 4 3 6 5 4 5 17 13
21 22 22 21 21 22 22 21 21 20 19 18 16 14 12 10 8 6 4 3 3 6 10 13 15 8 6 5 17 10 11 15 23 16 13 15 12 3 4 3 3 1 5 4 5 10 8
26 23 23 23 22 22 23 23 21 21 19 19 16 14 11 8 6 4 3 6 11 10 15 14 4 7 10 9 17 18 16 19 18 17 13 10 5 3 2 4 7 6 3 4 6 4 14
23 23 23 24 24 23 22 22 22 22 21 20 19 14 10 7 5 6 15 15 9 4 15 11 11 4 10 13 18 19 18 20 14 14 5 6 4 8 10 8 6 3 4 7 5 15 12
23 24 24 24 25 25 25 24 24 24 22 21 18 14 10 7 8 13 19 10 5 3 6 24 5 13 8 15 8 21 20 14 11 6 5 3 7 7 9 7 8 7 1 5 15 12 15
23 24 25 25 26 26 26 25 25 25 23 22 17 12 9 8 10 16 23 13 7 4 2 3 20 10 12 12 8 22 24 7 5 6 7 7 6 13 8 7 7 5 8 7 11 12 14
22 25 25 26 26 28 28 27 26 25 25 22 18 11 7 7 7 11 19 17 6 3 2 4 8 7 14 10 3 21 27 6 6 12 7 5 6 9 5 6 6 4 7 7 16 5 5
24 24 27 27 28 28 29 28 26 26 26 22 15 8 6 11 8 10 4 12 12 2 1 6 6 12 15 8 14 12 24 10 7 6 7 7 6 7 5 6 7 7 1 8 12 6 6
23 26 27 29 29 29 29 29 27 25 23 16 8 2 5 9 9 9 6 13 14 3 6 5 6 6 7 5 3 7 9 5 3 3 3 3 1 3 5 3 5 6 5 7 4 3 2
26 26 28 29 30 30 30 30 28 24 16 8 8 5 4 8 7 8 11 17 3 3 2 6 5 7 7 5 5 5 7 5 5 5 4 2 2 1 2 5 5 3 6 2 1 1 5
27 27 29 30 32 33 32 31 30 24 10 2 5 7 3 5 6 11 19 2 3 4 2 1 6 12 6 7 2 6 7 5 1 2 4 6 3 6 3 3 7 6 7 5 7 5 4
26 28 30 32 33 33 33 32 32 23 9 2 3 5 6 1 7 14 9 3 3 1 4 4 7 9 4 3 5 5 7 5 2 3 6 6 3 1 4 2 2 5 7 4 3 2 3
26 29 31 32 34 35 32 33 33 23 9 4 0 1 3 0 10 15 1 6 3 2 4 3 2 7 4 9 5 5 8 3 3 2 2 2 4 1 0 3 2 2 2 3 1 4 5
27 29 30 33 33 35 35 34 34 23 9 4 1 1 2 7 11 5 3 2 3 2 4 5 4 3 2 5 8 5 2 3 5 2 2 1 4 2 3 5 1 2 2 0 2 3 4
28 29 31 33 34 35 33 35 36 24 7 3 0 2 3 13 3 1 2 2 2 2 3 2 4 3 3 4 3 4 4 3 7 3 3 1 4 4 1 0 3 3 2 1 3 3 1
28 30 31 33 35 36 33 33 34 23 11 2 2 2 2 7 2 1 3 3 3 2 1 2 1 3 4 3 4 3 4 4 8 4 3 0 2 4 1 1 2 5 3 2 2 2 2
28 29 31 33 36 37 36 32 32 23 10 4 3 2 2 3 0 3 4 3 3 2 1 2 3 2 2 4 6 4 3 3 4 3 6 1 4 2 6 3 4 5 5 3 3 3 2
28 29 30 31 34 36 37 33 31 28 11 3 5 1 2 2 3 5 4 5 4 2 1 1 2 1 5 3 2 3 3 2 4 3 4 3 4 4 7 9 9 6 6 7 4 0 3
26 29 30 30 32 34 36 37 31 28 16 14 4 4 3 2 7 2 3 3 5 3 1 3 3 4 5 3 3 7 7 4 3 2 2 2 5 3 5 7 8 7 8 11 9 5 7
25 28 29 29 29 31 33 35 35 29 24 11 8 3 2 4 3 1 2 1 3 8 6 3 11 7 13 6 19 23 22 19 9 4 3 3 5 3 2 7 6 3 2 3 4 5 2
24 27 26 28 27 30 30 32 31 30 24 15 19 7 4 2 3 2 2 2 4 2 6 2 7 5 10 29 29 25 28 23 20 15 8 4 4 3 3 3 0 1 1 3 10 4 5
24 26 27 28 27 27 28 30 29 27 24 12 16 8 4 1 3 4 4 6 13 13 5 4 3 9 25 7 4 4 3 4 6 7 9 5 4 3 4 3 1 2 3 5 4 2 2
22 22 25 26 27 27 28 27 28 27 23 11 10 12 3 1 4 8 3 10 3 2 4 4 15 21 8 1 2 4 3 3 1 3 6 5 5 4 3 5 5 3 2 3 1 1 9
24 22 23 25 26 27 27 27 26 25 22 15 11 12 2 5 8 8 3 2 2 4 3 2 3 3 2 1 2 2 2 3 3 4 1 3 3 3 3 3 4 4 6 5 5 4 17
21 22 23 25 25 26 26 26 25 21 18 16 10 11 3 5 11 9 6 5 6 4 3 8 4 2 1 1 3 1 3 2 4 1 2 3 4 2 2 4 3 11 5 5 5 16 15
23 24 24 25 25 27 27 26 23 17 15 9 6 13 1 4 8 9 14 12 8 3 0 4 0 2 1 3 3 3 3 3 4 2 3 2 2 4 2 3 3 11 4 10 11 12 11
Wind_Direction
352 350 347 345 343 341 339 335 329 326 321 315 310 305 306 309 311 314 320 312 265 218 211 198 186 179 171 208 243 245 200 170 188 183 179 185 193 188 180 192 193 214 275 126 97 88 91
354 351 350 349 343 342 341 337 332 326 324 318 311 306 299 300 303 304 310 308 274 213 203 195 183 178 177 233 202 252 243 217 192 186 180 188 195 190 208 203 169 218 222 131 114 107 95
356 352 349 349 346 344 343 338 336 331 327 321 315 304 301 291 294 298 301 301 269 214 198 191 184 179 203 225 224 254 240 219 196 187 181 185 173 196 225 242 222 164 171 149 123 124 128
3 4 354 350 349 349 346 341 337 334 331 327 316 306 299 297 287 290 297 294 245 204 187 182 176 178 235 224 223 269 139 147 179 173 183 191 207 206 189 328 89 109 87 148 157 145 178
353 350 345 343 343 347 343 341 339 337 334 329 318 304 298 292 291 281 293 283 185 168 166 167 168 181 251 201 187 184 147 154 152 167 195 204 206 168 126 91 57 142 187 182 113 155 109
353 355 352 351 350 349 345 343 338 337 335 329 319 302 293 282 265 259 156 127 110 138 139 143 143 226 228 207 187 167 169 154 157 158 140 169 164 119 86 125 191 183 191 185 158 75 84
352 355 351 354 353 350 345 343 341 338 337 331 322 305 289 266 227 190 145 128 115 135 179 190 198 233 140 148 157 173 162 158 164 154 146 188 124 195 198 194 211 76 206 187 119 129 81
360 356 354 353 353 350 349 346 343 340 336 330 323 307 287 256 212 187 177 171 152 152 241 227 215 211 181 163 136 175 171 165 157 181 144 101 225 210 199 210 221 244 276 103 76 97 91
357 356 355 354 353 352 349 346 343 338 334 330 322 306 282 247 221 202 199 184 156 168 222 227 205 206 181 172 170 184 179 184 148 183 181 163 223 196 199 219 200 207 154 182 144 94 79
359 357 355 356 354 354 350 348 345 341 337 328 320 301 263 222 214 212 218 206 216 35 46 204 187 204 189 179 160 185 185 179 183 195 166 201 246 167 177 214 165 220 169 144 151 126 177
2 1 358 356 357 352 351 347 346 343 339 332 318 298 229 192 171 172 177 202 205 208 242 153 161 163 173 173 135 173 187 223 186 182 136 227 182 176 179 197 155 217 107 160 168 160 127
4 1 1 360 356 355 352 350 348 347 345 341 348 351 176 180 178 177 168 155 147 103 242 158 142 172 139 151 111 132 166 186 168 170 86 165 261 141 183 73 156 158 89 40 78 133 237
8 7 3 3 357 356 355 351 352 350 354 21 39 59 140 158 178 179 159 150 103 176 154 166 172 158 165 145 126 160 163 175 163 126 189 104 181 154 116 83 11 114 103 58 7 267 222
10 7 6 4 3 357 357 357 354 352 354 48 37 50 99 177 165 169 161 101 217 198 56 174 138 144 176 135 138 167 142 186 149 147 138 153 222 172 187 178 180 188 160 159 191 192 200
12 10 7 7 2 2 359 359 356 352 345 225 52 41 41 160 179 171 168 202 229 338 314 354 110 166 147 127 139 149 175 159 123 173 174 164 192 354 53 17 100 208 208 190 108 256 104
16 14 10 7 5 2 3 2 359 355 344 204 31 312 313 28 171 174 173 190 138 348 332 334 226 192 166 155 138 176 174 354 123 65 329 181 116 312 101 3 29 156 184 150 32 199 210
18 17 10 9 5 4 4 4 1 2 354 175 234 246 5 139 158 168 211 61 101 83 32 20 355 332 94 174 165 187 128 13 13 43 1 38 103 247 89 18 347 358 187 26 151 182 196
19 16 13 9 7 5 9 7 3 4 29 146 229 39 147 146 102 141 119 33 355 80 354 58 356 4 35 5 71 83 128 37 353 359 165 21 100 97 97 247 40 68 95 22 153 209 29
17 17 13 10 6 6 10 11 9 4 14 32 14 44 195 180 141 139 142 92 75 57 10 95 188 323 52 51 111 85 95 14 31 52 140 223 82 98 45 329 15 67 5 342 111 65 201
16 14 11 10 8 5 5 14 12 11 14 5 352 38 26 220 357 143 155 169 131 54 61 52 145 36 53 71 23 122 114 38 32 64 27 118 74 137 176 117 114 105 37 4 94 105 174
15 14 12 11 8 6 4 8 14 16 19 31 29 46 62 329 342 304 144 135 139 172 147 189 149 205 144 139 93 118 99 103 34 28 25 78 97 86 65 72 79 71 54 27 81 60 121
14 13 12 11 11 6 6 5 10 17 25 48 40 24 11 337 317 351 23 173 149 147 307 222 180 60 80 109 225 174 139 158 181 90 96 36 126 109 59 80 91 78 29 82 72 86 79
16 10 8 9 11 8 8 8 8 13 22 38 21 348 301 342 355 55 259 330 155 136 18 149 130 98 80 78 81 87 85 75 74 110 120 98 131 108 119 125 116 41 326 40 99 53 109
12 8 6 8 13 10 11 10 8 10 18 22 16 348 355 318 53 350 349 94 142 155 136 51 91 91 129 113 96 78 70 59 47 31 37 117 94 84 140 99 162 191 26 19 110 72 64
4 5 3 9 9 8 11 8 8 6 10 11 15 8 348 25 60 47 58 98 74 69 65 66 30 147 143 122 99 107 33 42 360 14 18 45 103 94 130 103 135 315 217 172 177 208 221
357 358 1 6 1 3 8 4 4 4 6 9 7 7 0 24 25 308 115 133 119 77 18 13 112 147 165 212 139 128 159 126 101 30 357 40 69 108 106 123 178 209 199 155 116 332 179
1 2 359 359 357 358 2 356 359 3 8 9 5 5 357 106 22 13 40 317 355 116 110 124 158 176 233 186 104 120 105 120 122 111 180 37 16 101 88 109 294 229 154 152 93 224 167
356 354 349 351 354 355 355 350 352 360 11 359 6 10 354 99 36 44 58 27 6 62 138 162 121 255 155 128 120 112 101 123 86 117 142 131 113 115 78 83 263 159 106 145 163 143 166
357 350 349 348 351 354 347 347 346 358 5 12 20 8 42 104 116 66 59 58 33 326 266 151 78 90 106 106 63 91 80 59 154 157 18 75 131 144 128 183 97 143 108 136 145 159 183